Long Beach, CA

2:02 PM PDT on September 30, 2016 (GMT -0700)
Long Beach

Weather History for KLGB - May, 2014

Change the Weather History Date:

Thursday, May 22, 2014

  Actual Average Record
Temperature  
Mean Temperature 65 °F 66 °F  
Max Temperature 70 °F 74 °F 89 °F (1967)
Min Temperature 60 °F 58 °F 48 °F (1962)
Degree Days  
Heating Degree Days 0 1  
Month to date heating degree days 7 31  
Since 1 July heating degree days 716 1207  
Cooling Degree Days 0 2  
Month to date cooling degree days 122 44  
Year to date cooling degree days 224 91  
Growing Degree Days 16 (Base 50)    
Moisture  
Dew Point 52 °F    
Average Humidity 63    
Maximum Humidity 72    
Minimum Humidity 53    
Precipitation  
Precipitation 0.00 in 0.01 in 0.29 in (2006)
Month to date precipitation 0.00 0.17  
Year to date precipitation 3.19 8.33  
Since 1 July precipitation 4.50  
Sea Level Pressure  
Sea Level Pressure 29.98 in    
Wind  
Wind Speed 5 mph (WSW)    
Max Wind Speed 13 mph    
Max Gust Speed 17 mph    
Visibility 10 miles    
Events      
T = Trace of Precipitation, MM = Missing Value Source: NWS Daily Summary

Daily Weather History Graph

Daily Weather History Graph

Search for Another Location

Airport or City:

Trip Planner

Search our weather history database for the weather conditions in past years. The results will help you decide how hot, cold, wet, or windy it might be!

Date:

Astronomy

May. 22, 2014 Rise Set
Actual Time 5:47 AM PDT 7:51 PM PDT
Civil Twilight 5:19 AM PDT 8:19 PM PDT
Nautical Twilight 4:44 AM PDT 8:54 PM PDT
Astronomical Twilight 4:08 AM PDT 9:30 PM PDT
Moon 1:51 AM PDT (5/22) 2:01 PM PDT (5/22)
Length of Visible Light 15h 00m
Length of Day
14h 04m
Last Quarter, 36% of the Moon is Illuminated
May 22
Last Quarter
May 28
New
Jun 5
First Quarter
Jun 12
Full
Jun 19
Last Quarter

Hourly Weather History & Observations

Time (PDT) Temp. Dew Point Humidity Pressure Visibility Wind Dir Wind Speed Gust Speed Precip Events Conditions
12:53 AM 61.0 °F 51.1 °F 70% 29.95 in 10.0 mi Calm Calm - N/A   Mostly Cloudy
1:53 AM 60.1 °F 51.1 °F 72% 29.94 in 10.0 mi NNW 3.5 mph - N/A   Partly Cloudy
2:27 AM 60.8 °F 51.8 °F 72% 29.95 in 10.0 mi Calm Calm - N/A   Mostly Cloudy
2:53 AM 61.0 °F 52.0 °F 72% 29.94 in 10.0 mi Calm Calm - N/A   Overcast
3:53 AM 61.0 °F 52.0 °F 72% 29.94 in 10.0 mi North 3.5 mph - N/A   Overcast
4:53 AM 61.0 °F 52.0 °F 72% 29.94 in 10.0 mi NE 3.5 mph - N/A   Overcast
5:53 AM 62.1 °F 52.0 °F 70% 29.94 in 10.0 mi NNE 3.5 mph - N/A   Overcast
6:53 AM 62.1 °F 52.0 °F 70% 29.96 in 10.0 mi Calm Calm - N/A   Overcast
7:53 AM 63.0 °F 52.0 °F 67% 29.96 in 10.0 mi Calm Calm - N/A   Overcast
8:53 AM 63.0 °F 51.1 °F 65% 29.98 in 10.0 mi Calm Calm - N/A   Overcast
9:53 AM 66.0 °F 51.1 °F 59% 29.98 in 10.0 mi South 3.5 mph - N/A   Overcast
10:00 AM 66.2 °F 51.8 °F 60% 29.98 in 10.0 mi SSE 5.8 mph - N/A   Overcast
10:53 AM 66.0 °F 51.1 °F 59% 29.98 in 10.0 mi SSW 6.9 mph - N/A   Overcast
11:53 AM 66.0 °F 51.1 °F 59% 29.99 in 10.0 mi South 6.9 mph - N/A   Overcast
12:53 PM 66.9 °F 51.1 °F 57% 29.99 in 10.0 mi SSE 5.8 mph - N/A   Overcast
1:53 PM 66.2 °F 50.0 °F 56% 29.99 in 10.0 mi SSW 9.2 mph - N/A   Overcast
2:53 PM 68.0 °F 50.0 °F 52% 29.98 in 10.0 mi SSW 8.1 mph 16.1 mph N/A   Clear
3:53 PM 66.9 °F 50.0 °F 54% 29.98 in 10.0 mi SW 8.1 mph - N/A   Mostly Cloudy
4:53 PM 66.9 °F 51.1 °F 57% 29.97 in 10.0 mi Variable 6.9 mph - N/A   Scattered Clouds
5:53 PM 66.0 °F 51.1 °F 59% 29.97 in 10.0 mi SSW 8.1 mph - N/A   Mostly Cloudy
6:53 PM 64.9 °F 51.1 °F 61% 29.96 in 10.0 mi SSW 9.2 mph - N/A   Clear
7:53 PM 64.0 °F 51.1 °F 63% 29.99 in 10.0 mi South 5.8 mph - N/A   Scattered Clouds
8:53 PM 64.0 °F 52.0 °F 65% 30.00 in 10.0 mi SSW 5.8 mph - N/A   Mostly Cloudy
9:49 PM 62.6 °F 53.6 °F 72% 30.01 in 10.0 mi WNW 4.6 mph - N/A   Mostly Cloudy
9:53 PM 63.0 °F 53.1 °F 70% 30.01 in 10.0 mi NW 5.8 mph - N/A   Mostly Cloudy
10:53 PM 62.1 °F 53.1 °F 72% 30.01 in 10.0 mi Calm Calm - N/A   Mostly Cloudy
11:00 PM 62.6 °F 53.6 °F 72% 30.02 in 10.0 mi NNW 4.6 mph - N/A   Mostly Cloudy
11:17 PM 62.6 °F 53.6 °F 72% 30.02 in 10.0 mi NW 3.5 mph - N/A   Overcast
11:38 PM 62.6 °F 53.6 °F 72% 30.02 in 10.0 mi NNW 3.5 mph - N/A   Overcast
11:53 PM 63.0 °F 54.0 °F 72% 30.01 in 10.0 mi NW 3.5 mph - N/A   Overcast